User: anonymous   Login
Location: ???? ??????? ????
(31.2176°N, 31.6797°E)
Time: 02:24:59
(UTC+00:00)
Language:

Cosmos 1709 Rocket - Orbit

View from above orbital plane
View from above orbital plane
View from above satellite
View from above satellite

Ground track
Ground track

The orbit data is extracted from the following two-line orbital elements,

1 16369U 85116B   21018.28542337  .00000055  00000-0  39915-4 0  9993
2 16369  82.9373  93.1635 0037768  89.9506 332.2271 13.76864474762098
Epoch (UTC): 18 January 2021 06:51:00
Eccentricity: 0.0037768
inclination: 82.9373°
perigee height: 947 km
apogee height: 1003 km
right ascension of ascending node: 93.1635°
argument of perigee: 89.9506°
revolutions per day: 13.76864474
mean anomaly at epoch: 332.2271°
orbit number at epoch: 76209

The dashed part of the orbit path shows where the satellite is in the earth's shadow,  

DLR